Oakes, ND

4:42 PM CST on November 11, 2019 (GMT -0600)
Oakes

Weather History for K2D5 - September, 2019

Change the Weather History Date:

Monday, September 30, 2019

  Actual Average (WUND) Record (WUND)
Temperature  
Mean Temperature 53 °F -  
Max Temperature 60 °F - - (-1)
Min Temperature 44 °F - - (-1)
Degree Days  
Heating Degree Days 12    
Growing Degree Days 3 (Base 50)    
Moisture  
Dew Point 53 °F    
Average Humidity 100    
Maximum Humidity 100    
Minimum Humidity 100    
Precipitation  
Precipitation 0.00 in - - ()
Sea Level Pressure  
Sea Level Pressure 29.79 in    
Wind  
Wind Speed 13 mph (North)    
Max Wind Speed 23 mph    
Max Gust Speed 30 mph    
Visibility 6 miles    
Events Fog , Thunderstorm    
Averages and records for this station are not official NWS values.
T = Trace of Precipitation, MM = Missing Value Source: NWS Daily Summary

Daily Weather History Graph

Daily Weather History Graph

Search for Another Location

Airport or City:

Astronomy

Sep. 30, 2019 Rise Set
Actual Time 7:29 AM CDT 7:14 PM CDT
Civil Twilight 6:59 AM CDT 7:44 PM CDT
Nautical Twilight 6:24 AM CDT 8:19 PM CDT
Astronomical Twilight 5:49 AM CDT 8:54 PM CDT
Moon 9:40 AM CDT (9/30) 8:44 PM CDT (9/30)
Length of Visible Light 12h 45m
Length of Day
11h 45m
Waxing Crescent, 6% of the Moon is Illuminated
Sep 30
Waxing Crescent
Oct 5
First Quarter
Oct 13
Full
Oct 21
Last Quarter
Oct 27
New

Hourly Weather History & Observations

Time (CDT) Temp. Windchill Dew Point Humidity Pressure Visibility Wind Dir Wind Speed Gust Speed Precip Events Conditions
12:15 AM 57.2 °F - 57.2 °F 100% 29.70 in 9.0 mi ENE 11.5 mph - N/A Thunderstorm Overcast
12:35 AM 59.0 °F - 59.0 °F 100% 29.68 in 5.0 mi East 11.5 mph - N/A Thunderstorm Thunderstorm
12:55 AM 59.0 °F - 59.0 °F 100% 29.67 in 3.0 mi East 12.7 mph - N/A   Overcast
1:15 AM 60.8 °F - 60.8 °F 100% 29.67 in 5.0 mi SE 13.8 mph 20.7 mph N/A Thunderstorm Thunderstorm
1:35 AM 60.8 °F - 60.8 °F 100% 29.64 in 2.0 mi ESE 13.8 mph - N/A Thunderstorm Overcast
1:55 AM 60.8 °F - 60.8 °F 100% 29.66 in 2.0 mi ESE 11.5 mph - N/A Thunderstorm Thunderstorm
2:15 AM 60.8 °F - 60.8 °F 100% 29.68 in 1.0 mi East 6.9 mph - N/A Thunderstorm Overcast
2:35 AM 60.8 °F - 60.8 °F 100% 29.69 in 1.0 mi East 10.4 mph - N/A   Overcast
2:55 AM 60.8 °F - 60.8 °F 100% 29.68 in 0.8 mi ENE 9.2 mph - N/A Thunderstorm Overcast
3:15 AM 60.8 °F - 60.8 °F 100% 29.69 in 1.0 mi East 10.4 mph - N/A   Overcast
3:35 AM 60.8 °F - 60.8 °F 100% 29.68 in 0.8 mi East 12.7 mph - N/A   Overcast
3:55 AM 60.8 °F - 60.8 °F 100% 29.66 in 1.0 mi East 15.0 mph - N/A Thunderstorm Overcast
4:15 AM 60.8 °F - 60.8 °F 100% 29.71 in 2.0 mi Variable 6.9 mph 21.9 mph N/A Thunderstorm Overcast
4:35 AM 59.0 °F - 59.0 °F 100% 29.70 in 0.5 mi NNW 12.7 mph 19.6 mph N/A   Overcast
4:55 AM 57.2 °F - 57.2 °F 100% 29.69 in 4.0 mi North 16.1 mph - N/A   Overcast
5:15 AM - - - N/A% 29.69 in 2.0 mi NNE 13.8 mph - N/A   Overcast
5:35 AM 55.4 °F - 55.4 °F 100% 29.68 in 6.0 mi NE 11.5 mph 18.4 mph N/A   Overcast
5:55 AM 55.4 °F - 55.4 °F 100% 29.66 in 10.0 mi NE 11.5 mph - N/A   Overcast
6:15 AM 55.4 °F - 55.4 °F 100% 29.67 in 10.0 mi NNE 12.7 mph 19.6 mph N/A   Overcast
6:35 AM 53.6 °F - 53.6 °F 100% 29.67 in 8.0 mi NE 15.0 mph 20.7 mph N/A   Overcast
6:55 AM 53.6 °F - 53.6 °F 100% 29.68 in 9.0 mi NNE 16.1 mph - N/A   Overcast
7:15 AM 53.6 °F - 53.6 °F 100% 29.67 in 10.0 mi NNE 16.1 mph 21.9 mph N/A   Overcast
7:35 AM 53.6 °F - 53.6 °F 100% 29.66 in 5.0 mi NNE 16.1 mph - N/A   Overcast
7:55 AM 53.6 °F - 53.6 °F 100% 29.67 in 3.0 mi NNE 15.0 mph - N/A   Overcast
8:15 AM - - - N/A% 29.69 in 0.8 mi North 12.7 mph - N/A   Overcast
8:35 AM 51.8 °F - 51.8 °F 100% 29.68 in 0.5 mi North 12.7 mph 23.0 mph N/A Fog Fog
8:55 AM 51.8 °F - 51.8 °F 100% 29.71 in 0.5 mi North 13.8 mph - N/A Fog Fog
9:15 AM 51.8 °F - 51.8 °F 100% 29.68 in 0.8 mi North 15.0 mph - N/A   Overcast
9:35 AM 51.8 °F - 51.8 °F 100% 29.69 in 1.5 mi North 13.8 mph - N/A   Overcast
9:55 AM 51.8 °F - 51.8 °F 100% 29.68 in 1.5 mi North 13.8 mph - N/A   Overcast
10:15 AM 51.8 °F - 51.8 °F 100% 29.69 in 0.8 mi North - - N/A   Overcast
10:35 AM 51.8 °F - 51.8 °F 100% 29.70 in 0.8 mi NNW 13.8 mph 21.9 mph N/A   Overcast
10:55 AM 51.8 °F - 51.8 °F 100% 29.69 in 0.8 mi NNW 20.7 mph - N/A   Overcast
11:15 AM 51.8 °F - 51.8 °F 100% 29.70 in 1.2 mi North 18.4 mph 28.8 mph N/A   Overcast
11:35 AM 50.0 °F - 50.0 °F 100% 29.71 in 1.2 mi North 23.0 mph 29.9 mph N/A   Mostly Cloudy
11:55 AM 50.0 °F - 50.0 °F 100% 29.71 in 2.0 mi North 18.4 mph 27.6 mph N/A   Clear
12:15 PM 50.0 °F - 50.0 °F 100% 29.73 in 2.0 mi North 13.8 mph 26.5 mph N/A   Partly Cloudy
12:35 PM 50.0 °F - 50.0 °F 100% 29.73 in 1.2 mi North 16.1 mph 21.9 mph N/A   Overcast
12:55 PM 50.0 °F - 50.0 °F 100% 29.75 in 1.2 mi North 12.7 mph - N/A   Mostly Cloudy
1:15 PM 50.0 °F - 50.0 °F 100% 29.75 in 0.8 mi North 16.1 mph - N/A   Mostly Cloudy
1:35 PM 50.0 °F - 50.0 °F 100% 29.75 in 1.2 mi North 16.1 mph - N/A   Scattered Clouds
1:55 PM 51.8 °F - 51.8 °F 100% 29.77 in 5.0 mi North 11.5 mph 21.9 mph N/A   Partly Cloudy
2:15 PM 51.8 °F - 51.8 °F 100% 29.77 in 10.0 mi North 11.5 mph - N/A   Scattered Clouds
2:35 PM 51.8 °F - 51.8 °F 100% 29.78 in 10.0 mi North 13.8 mph - N/A   Mostly Cloudy
2:55 PM 53.6 °F - 53.6 °F 100% 29.78 in 10.0 mi North 11.5 mph - N/A   Overcast
3:15 PM 53.6 °F - 53.6 °F 100% 29.81 in 10.0 mi NNW 13.8 mph - N/A   Overcast
3:35 PM 53.6 °F - 53.6 °F 100% 29.81 in 10.0 mi NNW 11.5 mph - N/A   Overcast
3:55 PM 53.6 °F - 53.6 °F 100% 29.82 in 10.0 mi NNW 12.7 mph 18.4 mph N/A   Overcast
4:15 PM 53.6 °F - 53.6 °F 100% 29.83 in 10.0 mi NNW 13.8 mph - N/A   Overcast
4:35 PM 53.6 °F - 53.6 °F 100% 29.85 in 10.0 mi NNW 17.3 mph - N/A   Overcast
4:55 PM 53.6 °F - 53.6 °F 100% 29.86 in 10.0 mi NNW 13.8 mph 23.0 mph N/A   Overcast
5:15 PM 53.6 °F - 53.6 °F 100% 29.87 in 10.0 mi NNW 17.3 mph 24.2 mph N/A   Overcast
5:35 PM 53.6 °F - 53.6 °F 100% 29.88 in 10.0 mi NNW 15.0 mph - N/A   Overcast
5:55 PM 51.8 °F - 51.8 °F 100% 29.89 in 9.0 mi NNW 20.7 mph 27.6 mph N/A   Overcast
6:15 PM 51.8 °F - 51.8 °F 100% 29.91 in 9.0 mi NW 20.7 mph 27.6 mph N/A   Overcast
6:35 PM 50.0 °F - 50.0 °F 100% 29.93 in 2.0 mi NW 13.8 mph 23.0 mph N/A   Overcast
6:55 PM 48.2 °F - 48.2 °F 100% 29.93 in 10.0 mi NNW 11.5 mph 19.6 mph N/A   Scattered Clouds
7:15 PM 48.2 °F - 48.2 °F 100% 29.93 in 10.0 mi NNW 11.5 mph - N/A   Mostly Cloudy
7:35 PM 48.2 °F - 48.2 °F 100% 29.95 in 10.0 mi NW 12.7 mph - N/A   Overcast
7:55 PM 48.2 °F - 48.2 °F 100% 29.96 in 10.0 mi NW 9.2 mph - N/A   Overcast
8:15 PM 48.2 °F - 48.2 °F 100% 29.97 in 10.0 mi NW 19.6 mph - N/A   Overcast
8:35 PM 48.2 °F - 48.2 °F 100% 29.99 in 10.0 mi NNW 18.4 mph 26.5 mph N/A   Overcast
8:55 PM 48.2 °F - 48.2 °F 100% 29.99 in 10.0 mi NNW 17.3 mph 25.3 mph N/A   Overcast
9:15 PM 48.2 °F - 48.2 °F 100% 29.99 in 10.0 mi NW 17.3 mph 24.2 mph N/A   Overcast
9:35 PM 48.2 °F - 48.2 °F 100% 29.99 in 10.0 mi NNW 15.0 mph - N/A   Overcast
9:55 PM 48.2 °F - 48.2 °F 100% 29.99 in 10.0 mi NNW 11.5 mph 17.3 mph N/A   Overcast
10:15 PM 48.2 °F - 48.2 °F 100% 30.01 in 10.0 mi NNW 13.8 mph 20.7 mph N/A   Overcast
10:35 PM 46.4 °F 41.9 °F 46.4 °F 100% 30.03 in 10.0 mi NW 9.2 mph - N/A   Overcast
10:55 PM 46.4 °F 40.7 °F 46.4 °F 100% 30.03 in 10.0 mi NNW 12.7 mph - N/A   Overcast
11:15 PM 46.4 °F 42.4 °F 46.4 °F 100% 30.03 in 10.0 mi NNW 8.1 mph - N/A   Overcast
11:35 PM 46.4 °F 41.5 °F 46.4 °F 100% 30.02 in 10.0 mi NNW 10.4 mph - N/A   Overcast
11:55 PM 44.6 °F 40.2 °F 44.6 °F 100% 30.02 in 10.0 mi NNW 8.1 mph - N/A   Overcast